This is the latest recevied weather packets stored in our database for station/object KG5WBN. If no packets are shown the sender has not sent any weather packets the latest 10 day(s).
| Time | Temp. | Humidity | Pressure | Rain* | Wind** | Luminosity | Snow |
|---|---|---|---|---|---|---|---|
| 1788013398 | 30.56° C | 67% | 1016.3 hPa | 0 mm | - | 118 W/m² | - |
| 1788013097 | 30.56° C | 69% | 1016.3 hPa | 0 mm | - | 87 W/m² | - |
| 1788012797 | 30° C | 72% | 1015.9 hPa | 0 mm | - | 126 W/m² | - |
| 1788012487 | 30° C | 76% | 1016.3 hPa | 0 mm | - | 124 W/m² | - |
| 1788012187 | 29.44° C | 64% | 1016.3 hPa | 0 mm | - | 94 W/m² | - |
| 1788011886 | 29.44° C | 78% | 1016.3 hPa | 0 mm | - | 67 W/m² | - |
| 1788011584 | 28.89° C | 82% | 1016.3 hPa | 0 mm | - | 59 W/m² | - |
| 1788011281 | 28.89° C | 83% | 1016.3 hPa | 0 mm | - | 57 W/m² | - |
| 1788010979 | 28.33° C | 83% | 1016.3 hPa | 0 mm | - | 46 W/m² | - |
| 1788010674 | 28.33° C | 83% | 1016.3 hPa | 0 mm | - | 46 W/m² | - |
| 1788010372 | 28.33° C | 83% | 1016.3 hPa | 0 mm | - | 45 W/m² | - |
| 1788010067 | 28.33° C | 84% | 1016.3 hPa | 0 mm | - | 45 W/m² | - |
| 1788009762 | 27.78° C | 86% | 1016.3 hPa | 0 mm | - | 45 W/m² | - |
| 1788009460 | 27.78° C | 88% | 1016.6 hPa | 0 mm | - | 51 W/m² | - |
| 1788009155 | 27.78° C | 89% | 1016.3 hPa | 0 mm | - | 47 W/m² | - |
| 1788008850 | 27.22° C | 90% | 1016.3 hPa | 0 mm | - | 43 W/m² | - |
| 1788008544 | 27.22° C | 91% | 1016.3 hPa | 0 mm | - | 41 W/m² | - |
| 1788008242 | 27.22° C | 92% | 1016.3 hPa | 0 mm | - | 39 W/m² | - |
| 1788007940 | 26.67° C | 93% | 1016.6 hPa | 0 mm | - | 37 W/m² | - |
| 1788007640 | 26.67° C | 94% | 1016.3 hPa | 0 mm | - | 35 W/m² | - |
| 1788007340 | 26.67° C | 95% | 1016.3 hPa | 0 mm | - | 33 W/m² | - |
| 1788007035 | 26.67° C | 96% | 1015.9 hPa | 0 mm | - | 29 W/m² | - |
| 1788006729 | 26.11° C | 96% | 1015.9 hPa | 0 mm | - | 26 W/m² | - |
| 1788006423 | 26.11° C | 97% | 1016.3 hPa | 0 mm | - | 22 W/m² | - |
| 1788006123 | 26.11° C | 97% | 1015.9 hPa | 0 mm | - | 20 W/m² | - |
* Rain latest hour (hover to see other rain measurements)
** Current wind speed in m/s (hover to see current wind gust speed)